#timestamp,LO_Frequency,Hit,StdDev 
1508479215.3,286046996.0,N
1508479235.2,286046994.7,N
1508479255.9,286046993.9,N
1508479275.7,286046996.1,N
1508479295.6,286046993.9,N
1508479315.4,286046991.7,N
1508479335.2,286046991.8,N
1508479355.1,286046992.2,N
1508479356.0,286046992.2,N
1508479375.8,286046990.5,N
1508479395.6,286046994.8,N
1508479415.5,286046995.1,N
1508479435.3,286046996.5,N
1508479455.1,286046996.9,N
1508479475.8,286046997.4,N
1508479495.7,286046997.1,N
1508479515.5,286046999.3,N
1508479535.3,286046998.2,N
1508479555.2,286047002.0,N
1508479575.0,286047001.4,N
1508479575.9,286047001.4,N
1508479595.7,286047003.7,N
1508479615.6,286047002.0,N
1508479635.4,286047001.4,N
1508479655.2,286047001.3,N
1508479675.1,286047003.3,N
1508479676.0,286047003.3,N
1508479695.8,286047006.4,N
1508479715.6,286047008.6,N
1508479735.5,286047010.8,N
1508479755.3,286047009.9,N
1508479775.1,286047009.6,N
1508479795.9,286047013.8,N
1508479815.7,286047013.1,N
1508479835.5,286047010.6,N
1508479855.4,286047009.0,N
1508479875.2,286047013.1,N
1508479895.0,286047015.2,N
1508479895.9,286047015.2,N
1508479915.8,286047012.6,N
1508479935.6,286047012.6,N
1508479955.4,286047018.3,N
1508479975.3,286047021.3,Y
1508479995.1,286047015.4,P
1508479996.0,286047015.4,P
1508480015.9,286047010.3,N
1508480035.7,286047013.0,Y
1508480055.5,286047001.8,P
1508480075.4,286047005.5,N
1508480095.2,286047000.0,N
1508480115.0,286047000.4,N
1508480115.9,286047000.4,N
1508480135.8,286047000.6,N
1508480155.6,286046998.3,N
1508480175.4,286047001.1,N
1508480195.3,286046998.5,N
1508480215.1,286046999.9,N
1508480216.0,286046999.9,N
1508480235.8,286046998.2,N
1508480255.6,286046998.9,N
1508480275.5,286047002.5,N
1508480295.3,286047003.2,N
1508480315.1,286047006.8,N
1508480335.9,286047006.2,N
1508480355.7,286047005.7,N
1508480375.5,286047003.4,N
1508480395.4,286046999.8,N
1508480415.2,286047001.5,N
1508480435.0,286047003.2,N
1508480435.9,286047003.2,N
1508480455.8,286047002.9,N
1508480475.6,286047003.4,N
1508480495.4,286047004.7,N
1508480515.3,286047005.8,N
1508480535.1,286047003.5,N
1508480536.0,286047003.5,N
1508480555.8,286047002.3,N
1508480575.7,286047001.7,N
1508480595.5,286047000.9,N
1508480615.3,286046999.6,N
1508480635.2,286046999.2,N
1508480655.9,286046997.4,N
1508480675.7,286047000.5,N
1508480695.5,286047000.9,N
1508480715.4,286047000.1,N
1508480735.2,286046999.8,N
1508480755.0,286047001.8,N
1508480755.9,286047001.8,N
1508480775.8,286047001.4,N
1508480795.6,286047003.2,N
1508480815.4,286047001.4,N
1508480835.3,286047003.0,N
1508480855.1,286047005.6,N
1508480875.8,286047005.5,N
1508480895.7,286047002.2,N
1508480915.5,286047000.6,N
1508480935.3,286046999.9,N
1508480955.2,286047001.3,N
1508480975.9,286047001.8,N
1508480995.7,286047000.1,N
1508481015.6,286047002.4,N
1508481035.4,286047001.1,N
1508481055.2,286046998.3,N
1508481075.1,286047000.6,N
1508481076.0,286047000.6,N
1508481095.8,286046998.9,N
1508481115.6,286047001.1,N
1508481135.5,286047001.0,N
1508481155.3,286047002.5,N
1508481175.1,286047002.0,N
1508481195.9,286047000.5,N
1508481215.7,286047001.2,N
1508481235.5,286046998.7,N
1508481255.3,286046996.8,N
1508481275.2,286046997.6,N
1508481295.0,286046997.8,N
1508481295.9,286046997.8,N
1508481315.7,286046995.4,N
1508481335.6,286046998.7,N
1508481355.4,286046999.4,N
1508481375.2,286046998.6,N
1508481395.1,286046999.0,N
1508481396.0,286046999.0,N
1508481415.8,286046996.3,N
1508481435.7,286046993.9,Y
1508481455.5,286046996.7,P
1508481475.3,286046998.2,N
1508481495.1,286046999.1,N
1508481515.9,286047002.3,N
1508481535.7,286047004.4,N
1508481555.5,286047000.3,N
1508481575.4,286046999.0,N
1508481595.2,286046997.3,N
1508481615.0,286046995.0,N
1508481615.9,286046995.0,N
1508481635.8,286046994.4,N
1508481655.6,286046995.0,N
1508481675.4,286046999.4,N
1508481695.3,286047000.0,N
1508481715.1,286046998.6,N
1508481716.0,286046998.6,N
1508481735.8,286046998.2,N
1508481755.7,286046998.7,N
1508481775.5,286046999.5,N
1508481795.3,286047000.0,N
1508481815.2,286046999.3,N
1508481835.9,286046994.5,N
1508481855.7,286046992.7,Y
1508481875.6,286046993.3,P
1508481895.4,286047000.6,N
1508481915.2,286047000.1,N
1508481935.0,286047001.2,N
1508481936.0,286047001.2,N
1508481955.8,286047001.0,N
1508481975.6,286046999.5,N
1508481995.4,286046997.6,N
1508482015.3,286046996.7,N
1508482035.1,286046998.4,N
1508482055.8,286046996.7,N
1508482075.7,286046997.9,N
1508482095.5,286046992.5,Y
1508482115.3,286046998.9,P
1508482135.2,286046999.0,P
1508482155.0,286047002.6,P
1508482155.9,286047002.6,N
1508482175.7,286047003.7,N
1508482195.6,286047007.2,Y
1508482215.4,286047007.4,P
1508482235.2,286047007.4,N
1508482255.1,286047010.8,P
1508482256.0,286047010.8,Y
1508482275.8,286047002.4,P
1508482295.7,286047002.3,N
1508482315.5,286047002.4,N
1508482335.3,286047001.0,N
1508482355.1,286046997.2,N
1508482375.9,286046997.0,N
1508482395.7,286046997.0,N
1508482415.5,286046999.2,N
1508482435.4,286046994.9,N
1508482455.2,286046997.8,N
1508482475.0,286046997.5,N
1508482475.9,286046997.5,N
1508482495.8,286046996.8,N
1508482515.6,286046997.9,N
1508482535.4,286046999.6,N
1508482555.3,286046998.9,N
1508482575.1,286046993.3,N
1508482576.0,286046993.3,N
1508482595.8,286046997.1,N
1508482615.7,286046993.8,N
1508482635.5,286046990.3,Y
1508482655.3,286046994.3,P
1508482675.2,286046995.2,N
1508482695.9,286046996.0,N
1508482715.7,286046993.4,Y
1508482735.6,286047000.6,P
1508482755.4,286047001.0,N
1508482775.2,286047002.7,N
1508482795.1,286047000.6,N
1508482796.0,286047000.6,N
